TimeCST,TemperatureF,Dew PointF,Humidity,Sea Level PressureIn,VisibilityMPH,Wind Direction,Wind SpeedMPH,Gust SpeedMPH,PrecipitationIn,Events,Conditions,WindDirDegrees,DateUTC
12:53 AM,-2.9,-11.0,68,30.24,10.0,Calm,Calm,-,N/A,,Clear,0,2014-01-29 06:53:00
1:53 AM,-2.9,-9.9,72,30.22,10.0,Calm,Calm,-,N/A,,Clear,0,2014-01-29 07:53:00
2:53 AM,-5.1,-9.9,80,30.19,10.0,Calm,Calm,-,N/A,,Clear,0,2014-01-29 08:53:00
3:53 AM,-2.9,-9.9,72,30.15,10.0,Calm,Calm,-,N/A,,Clear,0,2014-01-29 09:53:00
4:53 AM,-6.0,-11.0,79,30.13,10.0,Calm,Calm,-,N/A,,Clear,0,2014-01-29 10:53:00
5:53 AM,-4.0,-9.9,76,30.11,10.0,Calm,Calm,-,N/A,,Clear,0,2014-01-29 11:53:00
6:53 AM,-2.9,-9.0,75,30.09,10.0,Calm,Calm,-,N/A,,Clear,0,2014-01-29 12:53:00
7:53 AM,-2.0,-8.0,76,30.09,10.0,ESE,3.5,-,N/A,,Clear,110,2014-01-29 13:53:00
8:53 AM,6.1,-0.9,73,30.06,10.0,SSE,4.6,-,N/A,,Clear,150,2014-01-29 14:53:00
9:53 AM,25.0,6.1,45,30.01,10.0,SW,11.5,-,N/A,,Clear,220,2014-01-29 15:53:00
10:53 AM,35.1,8.1,33,29.96,10.0,SSW,15.0,-,N/A,,Clear,210,2014-01-29 16:53:00
11:53 AM,42.1,8.1,25,29.91,10.0,SSW,17.3,-,N/A,,Clear,200,2014-01-29 17:53:00
12:53 PM,46.9,6.1,19,29.86,10.0,SW,19.6,-,N/A,,Clear,220,2014-01-29 18:53:00
1:53 PM,50.0,6.1,17,29.81,10.0,SW,16.1,26.5,N/A,,Clear,230,2014-01-29 19:53:00
2:53 PM,51.1,6.1,16,29.78,10.0,SW,19.6,-,N/A,,Clear,220,2014-01-29 20:53:00
3:53 PM,52.0,6.1,16,29.75,10.0,SW,18.4,-,N/A,,Clear,220,2014-01-29 21:53:00
4:53 PM,50.0,6.1,17,29.73,10.0,SSW,15.0,-,N/A,,Clear,210,2014-01-29 22:53:00
5:53 PM,42.1,6.1,23,29.71,10.0,SSW,11.5,-,N/A,,Clear,200,2014-01-29 23:53:00
6:53 PM,36.0,6.1,29,29.69,10.0,SSW,9.2,-,N/A,,Clear,200,2014-01-30 00:53:00
7:53 PM,35.1,7.0,31,29.66,10.0,SSW,10.4,-,N/A,,Clear,200,2014-01-30 01:53:00
8:53 PM,37.9,8.1,29,29.61,10.0,South,15.0,-,N/A,,Clear,190,2014-01-30 02:53:00
9:53 PM,39.9,8.1,27,29.55,10.0,South,16.1,-,N/A,,Scattered Clouds,180,2014-01-30 03:53:00
10:53 PM,41.0,9.0,27,29.49,10.0,South,16.1,-,N/A,,Overcast,180,2014-01-30 04:53:00
11:53 PM,44.1,10.0,25,29.44,10.0,SSW,20.7,27.6,N/A,,Overcast,200,2014-01-30 05:53:00